TimeEET,TemperatureF,Dew PointF,Humidity,Sea Level PressureIn,VisibilityMPH,Wind Direction,Wind SpeedMPH,Gust SpeedMPH,PrecipitationIn,Events,Conditions,WindDirDegrees,DateUTC
12:20 AM,57.2,55.4,94,30.04,6.2,ENE,6.9,-,N/A,,Scattered Clouds,70,2012-11-16 22:20:00
12:50 AM,57.2,53.6,88,30.01,6.2,ENE,5.8,-,N/A,,Scattered Clouds,70,2012-11-16 22:50:00
1:20 AM,55.4,53.6,94,30.01,6.2,NE,5.8,-,N/A,,Partly Cloudy,50,2012-11-16 23:20:00
1:50 AM,57.2,53.6,88,30.01,6.2,ENE,6.9,-,N/A,,Scattered Clouds,60,2012-11-16 23:50:00
2:00 AM,57,54,86,30.02,6,ENE,6.9,,,,Partly Cloudy,60,2012-11-17 00:00:00
2:20 AM,55.4,53.6,94,30.01,6.2,ENE,6.9,-,N/A,,Scattered Clouds,70,2012-11-17 00:20:00
2:50 AM,57.2,53.6,88,30.01,6.2,ENE,6.9,-,N/A,,Scattered Clouds,70,2012-11-17 00:50:00
3:20 AM,55.4,53.6,94,30.01,6.2,ENE,5.8,-,N/A,,Scattered Clouds,70,2012-11-17 01:20:00
3:50 AM,55.4,51.8,88,30.01,6.2,ENE,6.9,-,N/A,,Scattered Clouds,70,2012-11-17 01:50:00
4:20 AM,55.4,51.8,88,29.98,6.2,NE,6.9,-,N/A,,Scattered Clouds,40,2012-11-17 02:20:00
4:50 AM,55.4,50.0,82,29.98,6.2,East,6.9,-,N/A,,Scattered Clouds,80,2012-11-17 02:50:00
5:20 AM,57.2,50.0,77,29.98,6.2,ENE,8.1,-,N/A,,Scattered Clouds,60,2012-11-17 03:20:00
5:50 AM,55.4,50.0,82,29.98,6.2,ENE,5.8,-,N/A,,Scattered Clouds,70,2012-11-17 03:50:00
6:20 AM,53.6,50.0,88,29.98,6.2,NE,5.8,-,N/A,,Mostly Cloudy,50,2012-11-17 04:20:00
6:50 AM,53.6,48.2,82,29.98,6.2,ENE,4.6,-,N/A,,Mostly Cloudy,70,2012-11-17 04:50:00
7:20 AM,53.6,48.2,82,29.98,6.2,ENE,6.9,-,N/A,,Scattered Clouds,60,2012-11-17 05:20:00
7:50 AM,57.2,50.0,77,30.01,6.2,ENE,6.9,-,N/A,,Scattered Clouds,70,2012-11-17 05:50:00
8:00 AM,56,49,71,30.01,6,ENE,6.9,,,,Scattered Clouds,70,2012-11-17 06:00:00
8:20 AM,60.8,53.6,77,30.01,6.2,ENE,5.8,-,N/A,,Scattered Clouds,70,2012-11-17 06:20:00
8:50 AM,64.4,50.0,59,30.01,6.2,NNE,8.1,-,N/A,,Scattered Clouds,20,2012-11-17 06:50:00
9:20 AM,64.4,51.8,64,30.01,6.2,ENE,5.8,-,N/A,,Scattered Clouds,60,2012-11-17 07:20:00
9:50 AM,68.0,51.8,56,29.98,6.2,NNE,5.8,-,N/A,,Mostly Cloudy,30,2012-11-17 07:50:00
10:20 AM,71.6,48.2,43,29.98,6.2,NNE,10.4,-,N/A,,Mostly Cloudy,20,2012-11-17 08:20:00
10:50 AM,73.4,50.0,44,29.98,6.2,North,10.4,-,N/A,,Mostly Cloudy,10,2012-11-17 08:50:00
11:20 AM,73.4,50.0,44,29.95,6.2,North,9.2,-,N/A,,Mostly Cloudy,360,2012-11-17 09:20:00
11:50 AM,75.2,44.6,34,29.95,6.2,North,9.2,-,N/A,,Mostly Cloudy,360,2012-11-17 09:50:00
12:20 PM,75.2,48.2,38,29.95,6.2,North,11.5,-,N/A,,Mostly Cloudy,360,2012-11-17 10:20:00
12:50 PM,75.2,48.2,38,29.92,6.2,North,9.2,-,N/A,,Mostly Cloudy,360,2012-11-17 10:50:00
1:20 PM,75.2,50.0,41,29.92,6.2,NW,6.9,-,N/A,,Mostly Cloudy,320,2012-11-17 11:20:00
1:50 PM,75.2,48.2,38,29.92,6.2,NNW,6.9,-,N/A,,Mostly Cloudy,330,2012-11-17 11:50:00
2:00 PM,76,49,28,29.93,6,NNW,6.9,,,,Scattered Clouds,330,2012-11-17 12:00:00
2:20 PM,75.2,46.4,36,29.92,6.2,WNW,4.6,-,N/A,,Mostly Cloudy,300,2012-11-17 12:20:00
2:50 PM,73.4,50.0,44,29.92,6.2,WSW,5.8,-,N/A,,Mostly Cloudy,240,2012-11-17 12:50:00
3:20 PM,71.6,51.8,50,29.92,6.2,WSW,5.8,-,N/A,,Mostly Cloudy,240,2012-11-17 13:20:00
3:50 PM,71.6,53.6,53,29.92,6.2,West,5.8,-,N/A,,Mostly Cloudy,260,2012-11-17 13:50:00
4:20 PM,69.8,55.4,60,29.92,6.2,Variable,1.2,-,N/A,,Mostly Cloudy,0,2012-11-17 14:20:00
4:50 PM,66.2,57.2,73,29.92,6.2,ESE,4.6,-,N/A,,Mostly Cloudy,110,2012-11-17 14:50:00
5:20 PM,64.4,55.4,73,29.92,6.2,ESE,4.6,-,N/A,,Mostly Cloudy,110,2012-11-17 15:20:00
5:50 PM,62.6,55.4,77,29.92,6.2,East,3.5,-,N/A,,Mostly Cloudy,80,2012-11-17 15:50:00
6:20 PM,60.8,53.6,77,29.92,6.2,ENE,5.8,-,N/A,,Mostly Cloudy,60,2012-11-17 16:20:00
6:50 PM,60.8,51.8,72,29.92,6.2,NNE,5.8,-,N/A,,Mostly Cloudy,30,2012-11-17 16:50:00
7:20 PM,60.8,53.6,77,29.92,6.2,NNE,5.8,-,N/A,,Mostly Cloudy,20,2012-11-17 17:20:00
7:50 PM,60.8,51.8,72,29.95,6.2,ENE,5.8,-,N/A,,Mostly Cloudy,70,2012-11-17 17:50:00
8:00 PM,61,52,63,29.95,6,ENE,5.8,,,,Partly Cloudy,70,2012-11-17 18:00:00
8:20 PM,59.0,51.8,77,29.95,6.2,ENE,5.8,-,N/A,,Mostly Cloudy,70,2012-11-17 18:20:00
8:50 PM,59.0,51.8,77,29.95,6.2,NE,4.6,-,N/A,,Mostly Cloudy,50,2012-11-17 18:50:00
9:20 PM,59.0,51.8,77,29.95,6.2,ENE,8.1,-,N/A,,Mostly Cloudy,70,2012-11-17 19:20:00
9:50 PM,59.0,51.8,77,29.95,6.2,ENE,5.8,-,N/A,,Mostly Cloudy,70,2012-11-17 19:50:00
10:20 PM,57.2,51.8,82,29.95,6.2,East,3.5,-,N/A,,Mostly Cloudy,80,2012-11-17 20:20:00
10:50 PM,57.2,50.0,77,29.95,6.2,NNE,5.8,-,N/A,,Mostly Cloudy,20,2012-11-17 20:50:00
11:20 PM,55.4,50.0,82,29.95,6.2,NNE,6.9,-,N/A,,Mostly Cloudy,30,2012-11-17 21:20:00
11:50 PM,55.4,50.0,82,29.95,6.2,North,6.9,-,N/A,,Mostly Cloudy,10,2012-11-17 21:50:00